Flag for United Kingdom Weather past 2 weeks in Plymouth, England, United Kingdom

Now
54 °F

Passing clouds.


Feels Like: 50 °F
Forecast: 46 / 58 °F
Wind: 12 mph from Northwest

Location: Exeter Airport

Current Time: May 29, 2015 at 7:50:53 PM

Latest Report: May 29, 2015 at 7:20 PM


Visibility: N/A

Pressure: 29.86 "Hg

Humidity: 58%

Dew point: 39 °F

Location of PlymouthLocation

Historic Weather in Plymouth — Graph

°F

Plymouth temperature yesterday

Maximum temperature yesterday: 61 °F (at 2:50 PM)
Minimum temperature yesterday: 48 °F (at 11:20 PM)
Average temperature yesterday: 55 °F

Past Weeks' High & Low Weather Summary

 TemperatureHumidityPressure
High70 °F (May 23, 4:50 PM)100% (May 14, 9:50 PM)30.42 "Hg (May 14, 9:50 PM)
Low37 °F (May 20, 6:20 AM)48% (May 16, 1:20 PM)29.65 "Hg (May 18, 10:20 AM)
Average55 °F75%30.13 "Hg
* Reported May 14 6:20 PM — May 29 6:20 PM, Plymouth, Weather by CustomWeather, © 2015

Note: Actual official high and low records may vary slightly from our data, if they occured in-between our weather recording intervals... More about our weather records

Advertising

Plymouth weather history for previous 24 hours

 ConditionsComfort  
Time TempWeatherWind HumidityBarometerVisibility
6:20 PM
Fri, May 29
55 °FPassing clouds.14 mph55%29.83 "HgN/A
5:50 PM55 °FPassing clouds.17 mph55%29.83 "HgN/A
5:20 PM55 °FPassing clouds.18 mph55%29.83 "HgN/A
4:50 PM57 °FPassing clouds.16 mph59%29.83 "HgN/A
4:20 PM55 °FPassing clouds.20 mph63%29.83 "HgN/A
3:50 PM57 °FPassing clouds.17 mph59%29.80 "HgN/A
3:20 PM57 °FPassing clouds.16 mph59%29.80 "HgN/A
2:50 PM55 °FScattered clouds.18 mph67%29.80 "HgN/A
2:20 PM55 °FScattered clouds.15 mph72%29.80 "HgN/A
1:50 PM55 °FScattered clouds.20 mph72%29.77 "HgN/A
1:20 PM54 °FScattered clouds.12 mph88%29.77 "HgN/A
12:50 PM52 °FScattered showers. Scattered clouds.13 mph94%29.77 "HgN/A
12:20 PM52 °FScattered showers. Scattered clouds.12 mph94%29.77 "HgN/A
11:50 AM52 °FLight rain. Scattered clouds.16 mph88%29.77 "Hg5 mi
11:20 AM55 °FRain. Partly sunny.14 mph82%29.74 "Hg4 mi
10:50 AM55 °FLight rain. Partly sunny.15 mph77%29.74 "HgN/A
10:20 AM55 °FPartly sunny.17 mph77%29.74 "HgN/A
9:50 AM55 °FPartly sunny.17 mph77%29.77 "HgN/A
9:20 AM54 °FPartly sunny.16 mph82%29.77 "HgN/A
8:50 AM54 °FPartly sunny.17 mph77%29.77 "HgN/A
8:20 AM54 °FPartly sunny.15 mph77%29.77 "HgN/A
7:50 AM54 °FScattered clouds.15 mph77%29.80 "HgN/A
7:20 AM52 °FPartly sunny.10 mph82%29.80 "HgN/A
6:50 AM52 °FScattered clouds.10 mph77%29.83 "HgN/A
6:20 AM50 °FScattered clouds.9 mph82%29.83 "HgN/A
5:50 AM50 °FPassing clouds.9 mph82%29.86 "HgN/A
5:20 AM50 °FPassing clouds.7 mph82%29.86 "HgN/A
1:20 AM50 °FPassing clouds.9 mph76%29.95 "HgN/A
12:50 AM48 °FPassing clouds.9 mph82%29.95 "HgN/A
12:20 AM50 °FPassing clouds.7 mph76%29.98 "HgN/A
11:50 PM
Thu, May 28
50 °FPassing clouds.7 mph76%29.98 "HgN/A
11:20 PM48 °FPassing clouds.6 mph82%29.98 "HgN/A
10:50 PM50 °FClear.7 mph76%29.98 "Hg10 mi
10:20 PM50 °FClear.8 mph76%30.01 "Hg10 mi
9:50 PM50 °FPassing clouds.8 mph76%30.01 "HgN/A
9:20 PM52 °FPassing clouds.8 mph67%30.01 "HgN/A
8:50 PM52 °FPassing clouds.9 mph67%30.01 "HgN/A
8:20 PM55 °FPassing clouds.10 mph59%30.01 "HgN/A
7:50 PM55 °FPassing clouds.10 mph59%30.01 "HgN/A
7:20 PM57 °FPassing clouds.14 mph51%30.01 "HgN/A
Weather by CustomWeather, © 2015

See weather overviewHow to use our weather pages